Weather History for Poplar Bluff, MO

Change the Weather History Date:

Saturday, January 12, 2013

  Actual Average Record
Temperature  
Mean Temperature 53 °F -  
Max Temperature 60 °F 37 °F 71 °F (1928)
Min Temperature 41 °F 19 °F -18 °F (1918)
Degree Days  
Heating Degree Days 12    
Growing Degree Days 3 (Base 50)    
Moisture  
Dew Point 53 °F    
Average Humidity 93    
Maximum Humidity 100    
Minimum Humidity 86    
Precipitation  
Precipitation 2.81 in - - ()
Sea Level Pressure  
Sea Level Pressure 29.82 in    
Wind  
Wind Speed 5 mph (NNE)    
Max Wind Speed 28 mph    
Max Gust Speed 44 mph    
Visibility 3 miles    
Events Fog , Rain , Thunderstorm    
Averages and records for this station are not official NWS values.
T = Trace of Precipitation, MM = Missing Value Source: NWS Daily Summary

Daily Weather History Graph

Daily Weather History Graph

Search for Another Location

Airport:

Trip Planner

Search our weather history database for the weather conditions in past years. The results will help you decide how hot, cold, wet, or windy it might be!

Date:

Astronomy

Jan. 12, 2013 Rise Set
Actual Time 7:13 AM CST 5:06 PM CST
Civil Twilight 6:45 AM CST 5:34 PM CST
Nautical Twilight 6:13 AM CST 6:06 PM CST
Astronomical Twilight 5:42 AM CST 6:37 PM CST
Moon 7:35 AM CST (1/12) 6:31 PM CST (1/12)
Length of Visible Light 10h 49m
Length of Day
9h 52m
New Moon, 1% of the Moon is Illuminated
Jan 12
New Moon
Jan 18
First Quarter
Jan 26
Full
Feb 3
Last Quarter
Feb 10
New

Hourly Weather History & Observations

Time (CST) Temp. Windchill Dew Point Humidity Pressure Visibility Wind Dir Wind Speed Gust Speed Precip Events Conditions
12:53 AM 54.0 °F - 50.0 °F 86% 29.91 in 10.0 mi South 5.8 mph - N/A   Clear
1:53 AM 54.0 °F - 50.0 °F 86% 29.92 in 10.0 mi South 6.9 mph - N/A   Clear
2:53 AM 53.1 °F - 50.0 °F 89% 29.91 in 10.0 mi South 4.6 mph - N/A   Clear
3:53 AM 48.9 °F - 46.9 °F 93% 29.91 in 7.0 mi SSE 4.6 mph - N/A   Clear
4:15 AM 50.0 °F - 48.2 °F 94% 29.89 in 1.8 mi SSE 3.5 mph - N/A   Clear
4:37 AM 48.2 °F - 46.4 °F 93% 29.90 in 0.5 mi Calm Calm - N/A Fog Fog
4:53 AM 48.0 °F - 46.0 °F 93% 29.90 in 0.5 mi Calm Calm - N/A Fog Fog
5:00 AM 48.2 °F - 46.4 °F 93% 29.90 in 0.5 mi SSE 3.5 mph - N/A Fog Fog
5:18 AM 51.8 °F - 50.0 °F 94% 29.90 in 0.2 mi SSW 4.6 mph - N/A Fog Fog
5:39 AM 53.6 °F - 53.6 °F 100% 29.91 in 0.5 mi Calm Calm - N/A Fog Fog
5:50 AM 53.6 °F - 53.6 °F 100% 29.91 in 0.2 mi Calm Calm - N/A Fog Fog
5:53 AM 53.1 °F - 52.0 °F 96% 29.91 in 0.2 mi Calm Calm - N/A Fog Fog
6:04 AM 51.8 °F - 51.8 °F 100% 29.91 in 0.5 mi Calm Calm - N/A Fog Fog
6:53 AM 51.1 °F - 48.9 °F 92% 29.92 in 1.5 mi Calm Calm - N/A   Overcast
7:07 AM 51.8 °F - 48.2 °F 88% 29.93 in 3.0 mi Calm Calm - N/A   Overcast
7:44 AM 51.8 °F - 51.8 °F 100% 29.93 in 4.0 mi Calm Calm - N/A   Overcast
7:53 AM 53.1 °F - 50.0 °F 89% 29.93 in 3.0 mi Calm Calm - N/A   Overcast
8:01 AM 53.6 °F - 51.8 °F 94% 29.93 in 2.5 mi Calm Calm - N/A   Overcast
8:15 AM 53.6 °F - 51.8 °F 94% 29.93 in 0.8 mi North 3.5 mph - N/A   Mist
8:25 AM 53.6 °F - 51.8 °F 94% 29.93 in 0.2 mi Calm Calm - N/A Fog Fog
8:53 AM 55.0 °F - 53.1 °F 93% 29.94 in 0.2 mi Calm Calm - N/A Fog Fog
9:50 AM 55.4 °F - 55.4 °F 100% 29.93 in 0.2 mi Calm Calm - N/A Fog Fog
9:53 AM 57.0 °F - 55.0 °F 93% 29.93 in 0.2 mi Calm Calm - N/A Fog Fog
10:20 AM 57.2 °F - 55.4 °F 94% 29.93 in 0.2 mi NNE 3.5 mph - N/A Fog Fog
10:34 AM 57.2 °F - 55.4 °F 94% 29.93 in 0.2 mi Calm Calm - N/A Fog Fog
10:42 AM 57.2 °F - 57.2 °F 100% 29.93 in 0.5 mi Calm Calm - N/A Fog Fog
10:53 AM 57.9 °F - 57.0 °F 97% 29.91 in 0.8 mi ENE 3.5 mph - N/A   Overcast
11:04 AM 57.2 °F - 57.2 °F 100% 29.89 in 1.8 mi NNE 4.6 mph - N/A   Mostly Cloudy
11:25 AM 57.2 °F - 57.2 °F 100% 29.89 in 0.5 mi NNE 3.5 mph - N/A Fog Fog
11:29 AM 57.2 °F - 57.2 °F 100% 29.87 in 0.5 mi North 5.8 mph - 0.00 in Fog , Rain Light Rain
11:39 AM 57.2 °F - 57.2 °F 100% 29.85 in 0.2 mi North 8.1 mph - 0.00 in Fog , Rain Light Rain
11:53 AM 59.0 °F - 57.0 °F 93% 29.86 in 3.0 mi ENE 5.8 mph - 0.01 in Rain Light Rain
12:53 PM 60.1 °F - 57.9 °F 93% 29.83 in 4.0 mi ENE 3.5 mph - 0.02 in Rain Light Rain
1:08 PM 59.0 °F - 57.2 °F 94% 29.82 in 1.8 mi NNE 4.6 mph - 0.00 in Rain Rain
1:34 PM 60.8 °F - 57.2 °F 88% 29.79 in 2.5 mi NNE 9.2 mph - 0.04 in Rain Rain
1:44 PM 60.8 °F - 57.2 °F 88% 29.79 in 1.2 mi North 8.1 mph - 0.09 in Rain Heavy Rain
1:53 PM 59.0 °F - 57.9 °F 96% 29.82 in 1.5 mi NW 9.2 mph - 0.15 in Rain Rain
2:05 PM 60.8 °F - 57.2 °F 88% 29.81 in 0.8 mi North 6.9 mph - 0.19 in Rain Rain
2:10 PM 60.8 °F - 57.2 °F 88% 29.79 in 2.0 mi ENE 9.2 mph - 0.20 in Rain Light Rain
2:13 PM 60.8 °F - 57.2 °F 88% 29.80 in 3.0 mi Variable 5.8 mph - 0.21 in Rain Light Rain
2:30 PM 59.0 °F - 57.2 °F 94% 29.79 in 2.0 mi NE 6.9 mph - 0.26 in Rain Light Rain
2:35 PM 59.0 °F - 57.2 °F 94% 29.79 in 3.0 mi ENE 6.9 mph - 0.26 in Rain Light Rain
2:43 PM 59.0 °F - 57.2 °F 94% 29.79 in 2.5 mi ENE 5.8 mph - 0.27 in Rain Heavy Rain
2:46 PM 59.0 °F - 57.2 °F 94% 29.79 in 1.8 mi ENE 5.8 mph - 0.32 in Rain Heavy Rain
2:53 PM 59.0 °F - 57.9 °F 96% 29.81 in 2.5 mi NNE 3.5 mph - 0.34 in Rain Rain
2:56 PM 59.0 °F - 57.2 °F 94% 29.80 in 3.0 mi NNE 3.5 mph - 0.00 in Rain Rain
2:58 PM 59.0 °F - 57.2 °F 94% 29.80 in 2.5 mi NNE 3.5 mph - 0.01 in Rain Light Rain
3:08 PM 59.0 °F - 57.2 °F 94% 29.80 in 1.8 mi NW 5.8 mph - 0.04 in Rain Heavy Rain
3:20 PM 59.0 °F - 57.2 °F 94% 29.78 in 2.0 mi NE 9.2 mph - 0.10 in Rain Light Rain
3:26 PM 59.0 °F - 57.2 °F 94% 29.77 in 3.0 mi NE 8.1 mph - 0.11 in Rain Light Rain
3:39 PM 59.0 °F - 57.2 °F 94% 29.76 in 10.0 mi NE 8.1 mph - 0.11 in   Overcast
3:49 PM 59.0 °F - 57.2 °F 94% 29.76 in 7.0 mi NE 8.1 mph - 0.11 in Rain Light Rain
3:53 PM 59.0 °F - 57.0 °F 93% 29.76 in 5.0 mi NNE 8.1 mph - 0.12 in Rain Rain
4:00 PM 59.0 °F - 57.2 °F 94% 29.75 in 5.0 mi NNE 8.1 mph - 0.01 in Rain , Thunderstorm Light Thunderstorms and Rain
4:10 PM 59.0 °F - 57.2 °F 94% 29.76 in 7.0 mi Calm Calm - 0.01 in Rain , Thunderstorm Light Thunderstorms and Rain
4:22 PM 59.0 °F - 55.4 °F 88% 29.75 in 5.0 mi NNE 9.2 mph - 0.02 in Rain Light Rain
4:29 PM 57.2 °F - 57.2 °F 100% 29.77 in 7.0 mi SW 6.9 mph - 0.02 in Rain , Thunderstorm Light Thunderstorms and Rain
4:39 PM 59.0 °F - 55.4 °F 88% 29.74 in 3.0 mi North 15.0 mph 19.6 mph 0.07 in Rain , Thunderstorm Light Thunderstorms and Rain
4:53 PM 59.0 °F - 57.0 °F 93% 29.74 in 7.0 mi North 9.2 mph - 0.09 in Rain , Thunderstorm Light Rain
5:00 PM 59.0 °F - 55.4 °F 88% 29.73 in 8.0 mi NE 10.4 mph - 0.00 in Rain Light Rain
5:18 PM 59.0 °F - 55.4 °F 88% 29.74 in 2.5 mi NNW 12.7 mph - 0.09 in Rain Heavy Rain
5:24 PM 57.2 °F - 55.4 °F 94% 29.75 in 3.0 mi North 8.1 mph - 0.13 in Rain Rain
5:53 PM 59.0 °F - 55.9 °F 90% 29.74 in 9.0 mi NE 12.7 mph - 0.23 in Rain Light Rain
6:53 PM 57.9 °F - 55.9 °F 93% 29.71 in 10.0 mi NNE 11.5 mph - 0.08 in   Overcast
7:08 PM 57.2 °F - 55.4 °F 94% 29.69 in 10.0 mi NE 8.1 mph - 0.00 in Rain Light Rain
7:30 PM 57.2 °F - 55.4 °F 94% 29.69 in 4.0 mi Variable 6.9 mph - 0.07 in Rain , Thunderstorm Heavy Rain
7:34 PM 57.2 °F - 55.4 °F 94% 29.70 in 2.5 mi NW 10.4 mph 16.1 mph 0.08 in Rain , Thunderstorm Heavy Rain
7:39 PM 60.8 °F - 57.2 °F 88% 29.69 in 3.0 mi SE 9.2 mph 16.1 mph 0.15 in Rain , Thunderstorm Heavy Rain
7:53 PM 55.9 °F - 54.0 °F 93% 29.73 in 4.0 mi NW 19.6 mph 34.5 mph 0.21 in Rain Rain
7:57 PM 53.6 °F - 51.8 °F 94% 29.72 in 4.0 mi NNW 27.6 mph 43.7 mph 0.00 in Rain Rain
8:02 PM 53.6 °F - 50.0 °F 88% 29.70 in 2.5 mi Calm Calm - 0.03 in Rain , Thunderstorm Heavy Rain
8:19 PM 53.6 °F - 51.8 °F 94% 29.71 in 1.8 mi NNW 10.4 mph - 0.22 in Rain Heavy Rain
8:26 PM 53.6 °F - 51.8 °F 94% 29.72 in 2.0 mi NNW 8.1 mph - 0.31 in Rain Rain
8:30 PM 53.6 °F - 51.8 °F 94% 29.72 in 3.0 mi NNW 9.2 mph - 0.34 in Rain Heavy Rain
8:53 PM 53.1 °F - 50.0 °F 89% 29.71 in 5.0 mi NNW 13.8 mph - 0.51 in Rain Rain
9:05 PM 51.8 °F - 48.2 °F 88% 29.74 in 3.0 mi North 10.4 mph - 0.08 in Rain , Thunderstorm Heavy Rain
9:10 PM 51.8 °F - 48.2 °F 88% 29.74 in 1.8 mi North 10.4 mph - 0.15 in Rain , Thunderstorm Heavy Rain
9:35 PM 50.0 °F - 48.2 °F 94% 29.74 in 3.0 mi North 11.5 mph - 0.62 in Rain , Thunderstorm Thunderstorms and Rain
9:53 PM 48.9 °F - 46.9 °F 93% 29.76 in 4.0 mi North 9.2 mph - 0.70 in Rain Rain
10:10 PM 48.2 °F - 44.6 °F 87% 29.74 in 4.0 mi North 20.7 mph - 0.04 in Rain , Thunderstorm Rain
10:25 PM 46.4 °F 39.0 °F 44.6 °F 93% 29.77 in 5.0 mi North 19.6 mph - 0.08 in Rain Rain
10:51 PM 46.4 °F 39.5 °F 42.8 °F 87% 29.78 in 4.0 mi North 17.3 mph - 0.16 in Rain Rain
10:53 PM 46.0 °F 39.6 °F 42.1 °F 86% 29.79 in 4.0 mi North 15.0 mph - 0.17 in Rain Rain
11:01 PM 46.4 °F 40.7 °F 42.8 °F 87% 29.81 in 7.0 mi NNW 12.7 mph - 0.01 in Rain Rain
11:53 PM 41.0 °F 31.6 °F 37.9 °F 89% 29.80 in 4.0 mi North 20.7 mph 24.2 mph 0.18 in Rain Heavy Rain